Location: Pl�tzky
(52.0521°N, 11.8020°E)
Time: 10:27:01
(UTC+00:00)

N. Korean satellite - Pass Details

Date: 31 January 2021
Orbit: 451 x 502 km, 97.2° (Epoch: 07 March)

Event Time Altitude Azimuth Distance (km) Brightness Sun altitude
Rises 03:35:48 0° 30° (NNE) 2,497 10.7 -30.5°
Reaches altitude 10° 03:38:51 10° 61° (ENE) 1,606 10.0 -30.0°
Maximum altitude 03:40:27 13° 88° (E) 1,438 9.8 -29.8°
Drops below altitude 10° 03:42:02 10° 116° (ESE) 1,593 9.8 -29.5°
Sets 03:45:02 0° 147° (SSE) 2,454 10.4 -29.1°
